OBJECT D, 62732

Orbit data source: Space-Track

You're viewing an Uncataloged Satellite

Recently launched and/or uncataloged satellites may have evolving metadata. Metadata may include but not limited to: Owner, Maufacturer, Bus, Motor, and Mission.

OBJECT D, 62732 is a satellite owned by Yunyao yuhang (CN) in SSO that was launched on Mon, 20 Jan 2025 UTC via a GUSHENXING 1 launch vehicle from the Jiuquan Satellite Launch Center, China (JSC). Unknown objects in Earth's orbit typically refer to objects detected orbiting the Earth but have not yet been identified or cataloged. These objects could be anything from previously untracked satellites, spent rocket stages, debris from satellite collisions, or even natural meteoroids temporarily captured by Earth's gravity.

Loading next visibility...
OBJECT D details
Identifier
62732, 2025-013D
Orbit
SSO
Last TLE update9 hours ago
Origin
Flag of CNYunyao yuhang (CN / PRC)
ManufacturerYunyao yuhang
MissionOperational spacecraft
Bus & MotorYY-1, Unknown motor
Mass~50 kg wet, ~50 kg dry
Launch date (UTC)
2025-01-20 (2 weeks ago)
Launch vehicle
GUSHENXING 1
Launch site
Jiuquan Satellite Launch Center, China (JSC)
Object typeUnknown
Shape & HBRUnknown
Radar Cross SectionMedium (>0.1 m² and <1 m²)

Expand to show TLE details & history

TLE from 9 hours ago
0 OBJECT D
1 62732U 25013D   25035.77978844  .00009268  00000-0  57781-3 0  9996
2 62732  97.6097 202.7542 0013869 231.9108 128.0871 15.09682613  2261
Epoch: 2025-02-04T18:42Z
Definitive object data (Epoch: 2025-02-04T18:42:53.721Z)
Latitude0.00001°
Longitude146.85019°
Altitude546.165 km
Speed7.586 km/s
True Right ascension13h 31m 01s
True Declination0° 00' 00"
Sunlit
Object was in full shadow at TLE epoch
Visualization TLE readout
Latitude-34.84572°
Longitude152.54618°
Altitude551.129 km
Speed7.585 km/s
Apparent Right ascension15h 50m 17s
Apparent Declination-41° 37' 36"
Sunlit
Object is in daylight
Visualization observer readout
Local Sidereal Time06:08:02
Azimuth105.082° ESE
Elevation-64.035°
Doppler factor1
Orbital elements
Apogee altitude543.744 km
Perigee altitude524.571 km
Semi-major axis6,912.294 km
Eccentricity0.0013869
Inclination97.6097°
RAAN202.7542°
Arg. of periapsis231.9108°
True anomaly128.21205°
Mean anomaly128.0871°
Eccentric anomaly128.14959°
Mean motion3.77668 °/min
BSTAR0.00057781
Orbital period95.32 mins
Loading maneuver chart data...
Loading historical data...
Loading historical data...
Loading historical data...
Loading historical data...
Loading historical data...
Loading historical data...
Loading historical data...
Other satellites on launch #13 in the year 2025 (2025-01-20 UTC)

OBJECT D Visibility forecast

Observer location: undefined°, undefined

Span
Click to sort rows by Start time (UTC) header in descending order
Start Az.
Max El. time (UTC)
Max El. Az.
Max El.
End time (UTC)
End Az.
6 mins2025-02-05 10:45:15.551Z148.554° SSE2025-02-05 10:48:15.551Z72.927° E39.088°2025-02-05 10:51:15.551Z0.314° NNE
6 mins2025-02-05 23:55:15.551Z10.96° NNE2025-02-05 23:58:15.551Z206.122° SW43.866°2025-02-06 00:01:15.551Z194.784° SSW
|